TimeCST,TemperatureF,Dew PointF,Humidity,Sea Level PressureIn,VisibilityMPH,Wind Direction,Wind SpeedMPH,Gust SpeedMPH,PrecipitationIn,Events,Conditions,WindDirDegrees,DateUTC
12:53 AM,64.0,57.0,78,29.91,10.0,NW,4.6,-,N/A,,Mostly Cloudy,310,2013-12-02 06:53:00
1:53 AM,60.1,55.9,86,29.91,10.0,Calm,Calm,-,N/A,,Mostly Cloudy,0,2013-12-02 07:53:00
2:53 AM,57.0,55.0,93,29.89,10.0,Calm,Calm,-,N/A,,Mostly Cloudy,0,2013-12-02 08:53:00
3:53 AM,55.0,54.0,96,29.88,9.0,Calm,Calm,-,N/A,,Mostly Cloudy,0,2013-12-02 09:53:00
4:53 AM,57.0,55.0,93,29.86,10.0,SW,3.5,-,N/A,,Mostly Cloudy,220,2013-12-02 10:53:00
5:53 AM,55.9,54.0,93,29.85,10.0,SW,4.6,-,N/A,,Mostly Cloudy,220,2013-12-02 11:53:00
6:53 AM,51.1,50.0,96,29.85,8.0,Calm,Calm,-,N/A,,Mostly Cloudy,0,2013-12-02 12:53:00
7:53 AM,54.0,53.1,97,29.86,8.0,SSW,3.5,-,N/A,,Mostly Cloudy,210,2013-12-02 13:53:00
8:53 AM,62.1,55.9,80,29.86,10.0,Calm,Calm,-,N/A,,Mostly Cloudy,0,2013-12-02 14:53:00
9:53 AM,66.9,53.1,61,29.86,10.0,Calm,Calm,-,N/A,,Mostly Cloudy,0,2013-12-02 15:53:00
10:53 AM,71.1,53.1,53,29.83,10.0,Calm,Calm,-,N/A,,Mostly Cloudy,0,2013-12-02 16:53:00
11:53 AM,77.0,51.1,40,29.79,10.0,SSW,4.6,-,N/A,,Scattered Clouds,200,2013-12-02 17:53:00
12:53 PM,80.1,48.9,34,29.74,10.0,SSW,9.2,-,N/A,,Scattered Clouds,210,2013-12-02 18:53:00
1:53 PM,80.1,51.1,36,29.70,10.0,SSW,13.8,18.4,N/A,,Scattered Clouds,200,2013-12-02 19:53:00
2:53 PM,80.1,48.9,34,29.68,10.0,SSW,12.7,19.6,N/A,,Scattered Clouds,200,2013-12-02 20:53:00
3:53 PM,79.0,51.1,38,29.67,10.0,SSW,8.1,17.3,N/A,,Scattered Clouds,210,2013-12-02 21:53:00
4:53 PM,75.9,53.1,45,29.66,10.0,SSW,8.1,-,N/A,,Scattered Clouds,200,2013-12-02 22:53:00
5:53 PM,69.1,54.0,58,29.67,10.0,SSW,6.9,-,N/A,,Scattered Clouds,200,2013-12-02 23:53:00
6:53 PM,66.0,54.0,65,29.69,10.0,SSW,6.9,-,N/A,,Partly Cloudy,200,2013-12-03 00:53:00
7:53 PM,64.0,54.0,70,29.70,10.0,SW,4.6,-,N/A,,Partly Cloudy,230,2013-12-03 01:53:00
8:53 PM,59.0,53.1,81,29.70,10.0,SSW,5.8,-,N/A,,Partly Cloudy,200,2013-12-03 02:53:00
9:53 PM,59.0,53.1,81,29.70,10.0,Calm,Calm,-,N/A,,Clear,0,2013-12-03 03:53:00
10:53 PM,53.1,50.0,89,29.71,10.0,Calm,Calm,-,N/A,,Clear,0,2013-12-03 04:53:00
11:53 PM,53.1,52.0,96,29.70,10.0,West,3.5,-,N/A,,Clear,270,2013-12-03 05:53:00